TimeCST,TemperatureF,Dew PointF,Humidity,Sea Level PressureIn,VisibilityMPH,Wind Direction,Wind SpeedMPH,Gust SpeedMPH,PrecipitationIn,Events,Conditions,WindDirDegrees,DateUTC
12:52 AM,24.1,17.1,75,30.16,10.0,NNW,8.1,-,N/A,,Mostly Cloudy,330,2012-12-25 06:52:00
1:52 AM,23.0,17.1,78,30.19,10.0,NW,9.2,-,N/A,,Mostly Cloudy,320,2012-12-25 07:52:00
2:52 AM,21.9,16.0,78,30.22,10.0,NW,8.1,-,N/A,,Mostly Cloudy,320,2012-12-25 08:52:00
3:52 AM,21.9,16.0,78,30.24,10.0,NNW,11.5,-,N/A,,Mostly Cloudy,340,2012-12-25 09:52:00
4:52 AM,21.9,16.0,78,30.25,10.0,North,8.1,-,N/A,,Mostly Cloudy,350,2012-12-25 10:52:00
5:52 AM,21.9,16.0,78,30.27,10.0,NNW,8.1,-,N/A,,Mostly Cloudy,340,2012-12-25 11:52:00
6:52 AM,21.0,15.1,78,30.29,10.0,North,8.1,-,N/A,,Mostly Cloudy,350,2012-12-25 12:52:00
7:09 AM,21.2,15.8,80,30.25,10.0,NNW,8.1,-,N/A,,Overcast,340,2012-12-25 13:09:00
7:52 AM,21.0,15.1,78,30.31,10.0,North,11.5,-,N/A,,Mostly Cloudy,350,2012-12-25 13:52:00
8:52 AM,21.9,15.1,75,30.33,10.0,North,11.5,-,N/A,,Mostly Cloudy,350,2012-12-25 14:52:00
9:26 AM,21.2,15.8,80,30.31,10.0,North,11.5,-,N/A,,Mostly Cloudy,350,2012-12-25 15:26:00
9:52 AM,21.9,15.1,75,30.35,10.0,North,10.4,-,N/A,,Mostly Cloudy,350,2012-12-25 15:52:00
10:52 AM,23.0,14.0,68,30.33,10.0,NNW,10.4,-,N/A,,Mostly Cloudy,340,2012-12-25 16:52:00
11:52 AM,24.1,14.0,65,30.35,10.0,NNW,6.9,-,N/A,,Mostly Cloudy,340,2012-12-25 17:52:00
12:52 PM,25.0,14.0,63,30.35,10.0,NNW,6.9,-,N/A,,Mostly Cloudy,340,2012-12-25 18:52:00
1:52 PM,25.0,15.1,66,30.32,10.0,NNW,8.1,-,N/A,,Mostly Cloudy,330,2012-12-25 19:52:00
2:52 PM,26.1,16.0,66,30.33,10.0,North,8.1,-,N/A,,Mostly Cloudy,350,2012-12-25 20:52:00
3:52 PM,26.1,17.1,69,30.32,10.0,North,9.2,-,N/A,,Mostly Cloudy,360,2012-12-25 21:52:00
4:36 PM,24.8,17.6,74,30.30,10.0,North,6.9,-,N/A,,Mostly Cloudy,350,2012-12-25 22:36:00
4:52 PM,25.0,17.1,72,30.35,10.0,North,4.6,-,N/A,,Mostly Cloudy,350,2012-12-25 22:52:00
5:52 PM,25.0,17.1,72,30.36,10.0,NNW,8.1,-,N/A,,Overcast,340,2012-12-25 23:52:00
6:52 PM,24.1,16.0,71,30.37,10.0,NNW,10.4,-,N/A,,Mostly Cloudy,340,2012-12-26 00:52:00
7:52 PM,24.1,17.1,75,30.37,9.0,NNW,6.9,-,0.00,Snow,Light Snow,340,2012-12-26 01:52:00
8:52 PM,24.1,18.0,77,30.35,9.0,NNW,8.1,-,0.00,Snow,Light Snow,330,2012-12-26 02:52:00
9:52 PM,24.1,19.9,84,30.31,9.0,NNW,9.2,-,0.00,Snow,Light Snow,340,2012-12-26 03:52:00
10:52 PM,26.1,21.9,84,30.30,9.0,NNW,6.9,-,0.00,Snow,Light Snow,340,2012-12-26 04:52:00
11:52 PM,30.9,23.0,72,30.28,10.0,East,18.4,24.2,0.00,,Overcast,80,2012-12-26 05:52:00